Location: Newark
(21.1700°N, 79.6500°E)
Time: 20:08:24
(UTC+00:00)

N. Korean satellite - Pass Details

Date: 17 December 2019
Orbit: 454 x 508 km, 97.2° (Epoch: 20 January)

Event Time Altitude Azimuth Distance (km) Brightness Sun altitude
Rises 00:32:12 0° 4° (N) 2,480 10.0 -9.3°
Reaches altitude 10° 00:34:17 10° 359° (N) 1,598 9.0 -8.8°
Maximum altitude 00:37:36 52° 282° (WNW) 573 6.5 -8.1°
Drops below altitude 10° 00:40:54 10° 205° (SSW) 1,582 9.1 -7.4°
Sets 00:42:57 0° 200° (SSW) 2,451 10.2 -7.0°
